YAMAL 300K

Last updated on Wed Sep 09 2026 00:02:59 GMT+0000 (Coordinated Universal Time)

1 38978U 12061B 26251.61533752 .00000050 00000+0 00000+0 0 9996 2 38978 0.0139 211.2620 0000556 117.5368 63.3488 1.00270232 50465
UTC large
Height (km)
Speed (km/s)
/
Latitude / Longitude
Inclination (degrees)
Orbital Period (minutes)
Azimuth
Elevation
Range (km)
Doppler Factor

Next 0 passes for location: London (51.5072 / 0.1276)

No passes found over London.
YAMAL 300K